Location: Street
(51.1247°N, 2.7429°W)
Time: 15:46:45
(UTC+01:00)

UWE-3 - Pass Details

Date: 01 April 2023
Orbit: 576 x 669 km, 97.7° (Epoch: 02 June)

Event Time Altitude Azimuth Distance (km) Brightness Sun altitude
Rises 04:07:46 0° 15° (NNE) 2,994 ? -23.4°
Reaches altitude 10° 04:10:02 10° 18° (NNE) 2,064 ? -23.1°
Maximum altitude 04:14:32 69° 102° (ESE) 684 ? -22.6°
Enters shadow 04:15:36 49° 166° (SSE) 824 ? -22.4°
